Location: Villingen
(48.0639°N, 8.4609°E)
Time: 10:00:14
(UTC+02:00)

ISS - Pass Details

Date: 12 February 2018
Orbit: 402 x 406 km, 51.6° (Epoch: 18 June)

Event Time Altitude Azimuth Distance (km) Brightness Sun altitude
Rises 18:25:34 0° 290° (WNW) 2,321 1.1 -7.6°
Reaches altitude 10° 18:27:46 10° 280° (W) 1,459 0.3 -8.0°
Maximum altitude 18:30:43 32° 216° (SW) 720 -2.0 -8.4°
Drops below altitude 10° 18:33:40 10° 151° (SSE) 1,453 -1.2 -8.9°
Enters shadow 18:36:24 -2° 139° (SE) 2,530 -0.1 -9.4°
